Location: Pedholt
(56.0260°N, 10.2097°E)
Time: 18:24:39
(UTC+00:00)

A-11 Canister half - Pass Details

Date: 29 July 2021
Orbit: 1515 x 1685 km, 47.2° (Epoch: 20 September)

Event Time Altitude Azimuth Distance (km) Brightness Sun altitude
Rises 20:02:40 0° 260° (W) 4,868 12.2 -4.1°
Reaches altitude 10° 20:05:52 10° 255° (WSW) 3,900 11.6 -4.4°
Maximum altitude 20:15:26 52° 184° (S) 2,008 9.4 -5.4°
Drops below altitude 10° 20:25:08 10° 112° (ESE) 3,949 10.6 -6.3°
Enters shadow 20:28:10 - 108° (ESE) 4,862 11.1 -6.6°
Sets 20:28:23 0° 108° (ESE) 4,933 - -6.6°
